Weather History for KLNL - September, 2012

Change the Weather History Date:

Thursday, September 20, 2012

  Actual Average (KEGV) Record (KEGV)
Temperature  
Mean Temperature 42 °F -  
Max Temperature 53 °F 61 °F 82 °F (2011)
Min Temperature 32 °F 41 °F 34 °F (1979)
Degree Days  
Heating Degree Days 22    
Moisture  
Dew Point 42 °F    
Average Humidity 87    
Maximum Humidity 100    
Minimum Humidity 62    
Precipitation  
Precipitation 0.13 in - - ()
Sea Level Pressure  
Sea Level Pressure 29.76 in    
Wind  
Wind Speed 7 mph (West)    
Max Wind Speed 15 mph    
Max Gust Speed 24 mph    
Visibility 9 miles    
Events Rain    
Averages and records for this station are not official NWS values.
T = Trace of Precipitation, MM = Missing Value Source: NWS Daily Summary

Daily Weather History Graph

Daily Weather History Graph

Search for Another Location

Airport or City:

Trip Planner

Search our weather history database for the weather conditions in past years. The results will help you decide how hot, cold, wet, or windy it might be!

Date:

Astronomy

Sep. 20, 2012 Rise Set
Actual Time 6:41 AM CDT 6:57 PM CDT
Civil Twilight 6:11 AM CDT 7:27 PM CDT
Nautical Twilight 5:36 AM CDT 8:02 PM CDT
Astronomical Twilight 5:00 AM CDT 8:38 PM CDT
Moon 12:19 PM CDT (9/20) 9:39 PM CDT (9/20)
Length of Visible Light 13h 15m
Length of Day
12h 15m
Waxing Crescent, 27% of the Moon is Illuminated
Sep 20
Waxing Crescent
Sep 22
First Quarter
Sep 29
Full
Oct 8
Last Quarter
Oct 15
New

Hourly Weather History & Observations

Time (CDT) Temp. Windchill Dew Point Humidity Pressure Visibility Wind Dir Wind Speed Gust Speed Precip Events Conditions
12:15 AM 46.4 °F 42.9 °F 44.6 °F 93% 29.68 in 10.0 mi West 6.9 mph - N/A   Mostly Cloudy
12:35 AM 46.4 °F 43.5 °F 44.6 °F 93% 29.67 in 10.0 mi WSW 5.8 mph - N/A   Overcast
12:55 AM 46.4 °F 41.9 °F 44.6 °F 93% 29.67 in 10.0 mi West 9.2 mph - N/A   Overcast
1:15 AM 46.4 °F 42.4 °F 44.6 °F 93% 29.68 in 10.0 mi West 8.1 mph - N/A   Overcast
1:35 AM 46.4 °F 42.4 °F 42.8 °F 87% 29.68 in 10.0 mi West 8.1 mph - N/A   Overcast
1:55 AM 46.4 °F 42.9 °F 42.8 °F 87% 29.68 in 10.0 mi West 6.9 mph - N/A   Overcast
2:15 AM 46.4 °F 42.4 °F 42.8 °F 87% 29.68 in 10.0 mi West 8.1 mph - N/A   Overcast
2:35 AM 46.4 °F 42.9 °F 42.8 °F 87% 29.68 in 10.0 mi West 6.9 mph - N/A   Overcast
2:55 AM 46.4 °F 42.9 °F 42.8 °F 87% 29.67 in 10.0 mi West 6.9 mph - N/A   Overcast
3:15 AM 46.4 °F 42.4 °F 42.8 °F 87% 29.67 in 10.0 mi WSW 8.1 mph - N/A   Overcast
3:35 AM 46.4 °F 42.4 °F 42.8 °F 87% 29.68 in 7.0 mi WSW 8.1 mph - N/A   Overcast
3:55 AM 44.6 °F 40.2 °F 42.8 °F 93% 29.68 in 7.0 mi West 8.1 mph 16.1 mph N/A   Overcast
4:15 AM 46.4 °F 42.9 °F 42.8 °F 87% 29.68 in 10.0 mi WSW 6.9 mph - N/A   Overcast
4:35 AM 46.4 °F 42.4 °F 42.8 °F 87% 29.68 in 10.0 mi WSW 8.1 mph - N/A   Overcast
5:15 AM 46.4 °F 41.9 °F 42.8 °F 87% 29.68 in 10.0 mi West 9.2 mph - N/A   Overcast
5:35 AM 46.4 °F 42.4 °F 42.8 °F 87% 29.68 in 10.0 mi West 8.1 mph - N/A   Overcast
5:55 AM 46.4 °F 41.9 °F 42.8 °F 87% 29.69 in 10.0 mi West 9.2 mph - N/A   Overcast
6:15 AM 46.4 °F 41.5 °F 42.8 °F 87% 29.69 in 10.0 mi West 10.4 mph 17.3 mph N/A   Overcast
6:35 AM 46.4 °F 41.9 °F 42.8 °F 87% 29.70 in 10.0 mi West 9.2 mph - N/A   Overcast
6:55 AM 46.4 °F 42.9 °F 42.8 °F 87% 29.71 in 10.0 mi West 6.9 mph 16.1 mph N/A   Overcast
7:15 AM 46.4 °F 41.5 °F 42.8 °F 87% 29.70 in 10.0 mi West 10.4 mph - N/A   Overcast
7:35 AM 46.4 °F 40.7 °F 42.8 °F 87% 29.70 in 10.0 mi West 12.7 mph 19.6 mph N/A   Overcast
7:55 AM 46.4 °F 41.9 °F 42.8 °F 87% 29.70 in 10.0 mi West 9.2 mph 16.1 mph N/A   Overcast
8:15 AM 48.2 °F - 42.8 °F 82% 29.71 in 10.0 mi West 9.2 mph 18.4 mph N/A   Overcast
8:35 AM 48.2 °F - 42.8 °F 82% 29.72 in 10.0 mi West 11.5 mph 16.1 mph N/A   Overcast
8:55 AM 48.2 °F - 42.8 °F 82% 29.72 in 10.0 mi West 5.8 mph - N/A   Overcast
9:15 AM 48.2 °F - 42.8 °F 82% 29.72 in 10.0 mi West 8.1 mph - N/A   Overcast
9:35 AM 48.2 °F - 41.0 °F 76% 29.72 in 10.0 mi West 4.6 mph - N/A   Overcast
9:55 AM 48.2 °F - 41.0 °F 76% 29.73 in 10.0 mi West 9.2 mph - N/A   Overcast
10:15 AM 48.2 °F - 42.8 °F 82% 29.74 in 10.0 mi West 4.6 mph - N/A Rain Light Rain
10:35 AM 48.2 °F - 42.8 °F 82% 29.74 in 7.0 mi West 9.2 mph - 0.01 in Rain Heavy Rain
10:55 AM 46.4 °F 44.3 °F 44.6 °F 93% 29.75 in 10.0 mi West 4.6 mph - 0.02 in Rain Rain
11:15 AM 46.4 °F - 44.6 °F 93% 29.75 in 10.0 mi Calm Calm - N/A   Light Drizzle
11:35 AM 48.2 °F - 44.6 °F 87% 29.75 in 10.0 mi West 3.5 mph - N/A   Overcast
11:55 AM 48.2 °F - 44.6 °F 87% 29.76 in 10.0 mi WNW 4.6 mph - N/A   Overcast
12:15 PM 50.0 °F - 42.8 °F 76% 29.76 in 10.0 mi West 5.8 mph - N/A   Overcast
12:35 PM 51.8 °F - 42.8 °F 71% 29.76 in 10.0 mi West 9.2 mph - N/A   Overcast
12:55 PM 51.8 °F - 42.8 °F 71% 29.77 in 10.0 mi West 9.2 mph - N/A   Overcast
1:15 PM 53.6 °F - 41.0 °F 62% 29.76 in 10.0 mi WNW 11.5 mph 17.3 mph N/A   Mostly Cloudy
1:35 PM 53.6 °F - 41.0 °F 62% 29.77 in 10.0 mi West 9.2 mph - N/A   Mostly Cloudy
1:55 PM 51.8 °F - 41.0 °F 67% 29.77 in 7.0 mi NW 5.8 mph - N/A   Overcast
2:15 PM 48.2 °F - 42.8 °F 82% 29.79 in 5.0 mi WNW 5.8 mph - 0.04 in Rain Light Rain
2:35 PM 50.0 °F - 44.6 °F 82% 29.79 in 10.0 mi WNW 5.8 mph - 0.05 in   Mostly Cloudy
2:55 PM 51.8 °F - 46.4 °F 82% 29.79 in 10.0 mi WNW 5.8 mph - 0.05 in   Mostly Cloudy
3:15 PM 51.8 °F - 44.6 °F 76% 29.79 in 10.0 mi West 10.4 mph 16.1 mph N/A   Overcast
3:35 PM 48.2 °F - 42.8 °F 82% 29.80 in 10.0 mi WNW 4.6 mph - N/A Rain Light Rain
3:55 PM 48.2 °F - 44.6 °F 87% 29.81 in 7.0 mi NW 15.0 mph 24.2 mph 0.02 in Rain Light Rain
4:15 PM 44.6 °F 42.2 °F 42.8 °F 93% 29.81 in 7.0 mi NW 4.6 mph - 0.01 in Rain Rain
4:35 PM 44.6 °F 42.2 °F 42.8 °F 93% 29.81 in 7.0 mi WNW 4.6 mph - 0.02 in Rain Light Rain
4:55 PM 46.4 °F 41.9 °F 42.8 °F 87% 29.82 in 7.0 mi NW 9.2 mph - 0.03 in Rain Rain
5:15 PM 46.4 °F 41.9 °F 42.8 °F 87% 29.82 in 10.0 mi WNW 9.2 mph - 0.01 in Rain Light Rain
5:35 PM 46.4 °F 43.5 °F 42.8 °F 87% 29.82 in 10.0 mi WNW 5.8 mph - 0.01 in   Mostly Cloudy
5:55 PM 46.4 °F 43.5 °F 42.8 °F 87% 29.82 in 10.0 mi WNW 5.8 mph - 0.01 in   Mostly Cloudy
6:15 PM 46.4 °F 43.5 °F 42.8 °F 87% 29.83 in 10.0 mi WNW 5.8 mph - N/A   Overcast
6:35 PM 44.6 °F 43.1 °F 42.8 °F 93% 29.83 in 10.0 mi West 3.5 mph - N/A   Overcast
6:55 PM 44.6 °F - 42.8 °F 93% 29.83 in 10.0 mi Calm Calm - N/A   Mostly Cloudy
7:15 PM 44.6 °F - 42.8 °F 93% 29.83 in 10.0 mi Calm Calm - N/A   Mostly Cloudy
7:35 PM 42.8 °F - 41.0 °F 93% 29.84 in 5.0 mi Calm Calm - N/A   Scattered Clouds
7:55 PM 39.2 °F - 37.4 °F 93% 29.84 in 1.5 mi Calm Calm - N/A   Scattered Clouds
8:15 PM 37.4 °F 34.9 °F 35.6 °F 93% 29.84 in 1.5 mi SW 3.5 mph - N/A   Mostly Cloudy
8:35 PM 37.4 °F - 37.4 °F 100% 29.84 in 10.0 mi Calm Calm - N/A   Mostly Cloudy
8:55 PM 37.4 °F - 37.4 °F 100% 29.84 in 2.5 mi Calm Calm - N/A   Mostly Cloudy
9:15 PM 35.6 °F - 35.6 °F 100% 29.84 in 2.5 mi Calm Calm - N/A   Scattered Clouds
9:35 PM 37.4 °F 34.9 °F 37.4 °F 100% 29.83 in 10.0 mi SW 3.5 mph - N/A   Clear
9:55 PM 37.4 °F - 37.4 °F 100% 29.83 in 10.0 mi Calm Calm - N/A   Clear
10:15 PM 33.8 °F - 33.8 °F 100% 29.83 in 10.0 mi Calm Calm - N/A   Clear
10:35 PM 33.8 °F - 33.8 °F 100% 29.83 in 5.0 mi Calm Calm - N/A   Clear
10:55 PM 33.8 °F - 32.0 °F 93% 29.83 in 5.0 mi Calm Calm - N/A   Clear
11:15 PM 32.0 °F - 32.0 °F 100% 29.82 in 10.0 mi Calm Calm - N/A   Clear
11:35 PM 32.0 °F - 32.0 °F 100% 29.82 in 5.0 mi Calm Calm - N/A   Clear
11:55 PM 32.0 °F - 32.0 °F 100% 29.82 in 4.0 mi Calm Calm - N/A   Clear